Time,TemperatureF,DewpointF,PressureIn,WindDirection,WindDirectionDegrees,WindSpeedMPH,WindSpeedGustMPH,Humidity,HourlyPrecipIn,Conditions,Clouds,dailyrainin,SoftwareType,DateUTC
2013-02-24 00:01:00,37.0,28.0,29.86,SW,227,12.0,-999.0,69,-99.99,,,-99.99,,2013-02-24 07:01:00,
2013-02-24 00:12:00,37.0,28.0,29.86,SW,227,12.0,-999.0,69,-99.99,,,-99.99,,2013-02-24 07:12:00,
2013-02-24 00:21:00,37.0,28.0,29.87,SW,234,12.0,-999.0,70,-99.99,,,-99.99,,2013-02-24 07:21:00,
2013-02-24 00:31:00,37.0,28.0,29.88,SW,233,12.0,-999.0,71,-99.99,,,-99.99,,2013-02-24 07:31:00,
2013-02-24 00:42:00,37.0,28.0,29.88,SW,233,12.0,-999.0,71,-99.99,,,-99.99,,2013-02-24 07:42:00,
2013-02-24 00:51:00,36.0,28.0,29.88,WSW,239,13.0,-999.0,73,-99.99,,,-99.99,,2013-02-24 07:51:00,
2013-02-24 01:01:00,36.0,29.0,29.89,SW,235,12.0,-999.0,74,-99.99,,,-99.99,,2013-02-24 08:01:00,
2013-02-24 01:11:00,36.0,29.0,29.89,SW,235,12.0,-999.0,74,-99.99,,,-99.99,,2013-02-24 08:11:00,
2013-02-24 01:22:00,36.0,29.0,29.90,SW,236,10.0,-999.0,75,-99.99,,,-99.99,,2013-02-24 08:22:00,
2013-02-24 01:31:00,36.0,29.0,29.90,SW,230,10.0,-999.0,76,-99.99,,,-99.99,,2013-02-24 08:31:00,
2013-02-24 01:42:00,36.0,29.0,29.90,SW,230,10.0,-999.0,76,-99.99,,,-99.99,,2013-02-24 08:42:00,
2013-02-24 01:53:00,35.0,28.0,29.91,SW,225,9.0,-999.0,76,-99.99,,,-99.99,,2013-02-24 08:53:00,
2013-02-24 02:01:00,35.0,29.0,29.91,SW,224,8.0,-999.0,77,-99.99,,,-99.99,,2013-02-24 09:01:00,
2013-02-24 02:11:00,35.0,29.0,29.91,SW,224,8.0,-999.0,77,-99.99,,,-99.99,,2013-02-24 09:11:00,
2013-02-24 02:21:00,35.0,29.0,29.92,SW,218,8.0,-999.0,78,-99.99,,,-99.99,,2013-02-24 09:21:00,
2013-02-24 02:31:00,35.0,29.0,29.93,SSW,213,6.0,-999.0,79,-99.99,,,-99.99,,2013-02-24 09:31:00,
2013-02-24 02:42:00,35.0,29.0,29.93,SSW,213,6.0,-999.0,79,-99.99,,,-99.99,,2013-02-24 09:42:00,
2013-02-24 02:51:00,34.0,28.0,29.93,SW,230,7.0,-999.0,80,-99.99,,,-99.99,,2013-02-24 09:51:00,
2013-02-24 03:01:00,34.0,29.0,29.93,WSW,240,8.0,-999.0,82,-99.99,,,-99.99,,2013-02-24 10:01:00,
2013-02-24 03:11:00,34.0,29.0,29.93,WSW,240,8.0,-999.0,82,-99.99,,,-99.99,,2013-02-24 10:11:00,
2013-02-24 03:21:00,34.0,29.0,29.93,WSW,244,8.0,-999.0,83,-99.99,,,-99.99,,2013-02-24 10:21:00,
2013-02-24 03:32:00,33.0,29.0,29.94,WSW,253,7.0,-999.0,84,-99.99,,,-99.99,,2013-02-24 10:32:00,
2013-02-24 03:41:00,33.0,29.0,29.94,WSW,253,7.0,-999.0,84,-99.99,,,-99.99,,2013-02-24 10:41:00,
2013-02-24 03:51:00,33.0,29.0,29.94,West,268,9.0,-999.0,84,-99.99,,,-99.99,,2013-02-24 10:51:00,
2013-02-24 04:01:00,32.0,28.0,29.95,West,274,11.0,-999.0,85,-99.99,,,-99.99,,2013-02-24 11:01:00,
2013-02-24 04:11:00,32.0,28.0,29.95,West,274,11.0,-999.0,85,-99.99,,,-99.99,,2013-02-24 11:11:00,
2013-02-24 04:21:00,31.0,27.0,29.95,West,277,11.0,-999.0,84,-99.99,,,-99.99,,2013-02-24 11:21:00,
2013-02-24 04:32:00,31.0,26.0,29.96,West,259,11.0,-999.0,83,-99.99,,,-99.99,,2013-02-24 11:32:00,
2013-02-24 04:41:00,31.0,26.0,29.96,West,259,11.0,-999.0,83,-99.99,,,-99.99,,2013-02-24 11:41:00,
2013-02-24 04:52:00,30.0,25.0,29.96,West,275,14.0,-999.0,83,-99.99,,,-99.99,,2013-02-24 11:52:00,
2013-02-24 05:01:00,29.0,24.0,29.97,West,265,14.0,-999.0,82,-99.99,,,-99.99,,2013-02-24 12:01:00,
2013-02-24 05:11:00,29.0,24.0,29.97,West,265,14.0,-999.0,82,-99.99,,,-99.99,,2013-02-24 12:11:00,
2013-02-24 05:22:00,29.0,24.0,29.98,West,265,12.0,-999.0,82,-99.99,,,-99.99,,2013-02-24 12:22:00,
2013-02-24 05:32:00,28.0,23.0,29.99,West,270,13.0,-999.0,81,-99.99,,,-99.99,,2013-02-24 12:32:00,
2013-02-24 05:46:00,28.0,23.0,29.99,West,270,13.0,-999.0,81,-99.99,,,-99.99,,2013-02-24 12:46:00,
2013-02-24 05:55:00,28.0,23.0,30.00,West,261,11.0,-999.0,82,-99.99,,,-99.99,,2013-02-24 12:55:00,
2013-02-24 06:11:00,27.0,22.0,30.00,West,272,11.0,-999.0,82,-99.99,,,-99.99,,2013-02-24 13:11:00,
2013-02-24 06:17:00,27.0,22.0,30.00,West,272,11.0,-999.0,82,-99.99,,,-99.99,,2013-02-24 13:17:00,
2013-02-24 06:26:00,27.0,23.0,30.01,WNW,298,9.0,-999.0,83,-99.99,,,-99.99,,2013-02-24 13:26:00,
2013-02-24 06:33:00,27.0,23.0,30.02,WNW,291,9.0,-999.0,83,-99.99,,,-99.99,,2013-02-24 13:33:00,
2013-02-24 06:44:00,27.0,23.0,30.02,WNW,291,9.0,-999.0,83,-99.99,,,-99.99,,2013-02-24 13:44:00,
2013-02-24 06:53:00,26.0,22.0,30.03,West,281,5.0,-999.0,84,-99.99,,,-99.99,,2013-02-24 13:53:00,
2013-02-24 07:04:00,26.0,22.0,30.04,WNW,293,3.0,-999.0,85,-99.99,,,-99.99,,2013-02-24 14:04:00,
2013-02-24 07:13:00,26.0,22.0,30.04,WNW,293,3.0,-999.0,85,-99.99,,,-99.99,,2013-02-24 14:13:00,
2013-02-24 07:24:00,26.0,22.0,30.04,WNW,288,2.0,-999.0,86,-99.99,,,-99.99,,2013-02-24 14:24:00,
2013-02-24 07:34:00,26.0,23.0,30.05,WNW,288,1.0,-999.0,87,-99.99,,,-99.99,,2013-02-24 14:34:00,
2013-02-24 07:44:00,26.0,23.0,30.05,WNW,288,1.0,-999.0,87,-99.99,,,-99.99,,2013-02-24 14:44:00,
2013-02-24 07:53:00,27.0,24.0,30.05,WNW,286,4.0,-999.0,87,-99.99,,,-99.99,,2013-02-24 14:53:00,
2013-02-24 08:13:00,27.0,23.0,30.05,West,266,7.0,-999.0,85,-99.99,,,-99.99,,2013-02-24 15:13:00,
2013-02-24 08:23:00,28.0,24.0,30.06,WNW,290,8.0,-999.0,83,-99.99,,,-99.99,,2013-02-24 15:23:00,
2013-02-24 08:32:00,28.0,23.0,30.06,West,267,9.0,-999.0,82,-99.99,,,-99.99,,2013-02-24 15:32:00,
2013-02-24 08:42:00,28.0,23.0,30.06,West,267,9.0,-999.0,82,-99.99,,,-99.99,,2013-02-24 15:42:00,
2013-02-24 08:52:00,28.0,23.0,30.07,West,263,10.0,-999.0,82,-99.99,,,-99.99,,2013-02-24 15:52:00,
2013-02-24 09:01:00,28.0,23.0,30.07,West,265,11.0,-999.0,81,-99.99,,,-99.99,,2013-02-24 16:01:00,
2013-02-24 09:11:00,28.0,23.0,30.07,West,265,11.0,-999.0,81,-99.99,,,-99.99,,2013-02-24 16:11:00,
2013-02-24 09:21:00,30.0,24.0,30.08,West,276,13.0,-999.0,79,-99.99,,,-99.99,,2013-02-24 16:21:00,
2013-02-24 09:32:00,31.0,25.0,30.09,West,269,14.0,-999.0,77,-99.99,,,-99.99,,2013-02-24 16:32:00,
2013-02-24 09:42:00,31.0,25.0,30.09,West,269,14.0,-999.0,77,-99.99,,,-99.99,,2013-02-24 16:42:00,
2013-02-24 09:52:00,32.0,25.0,30.09,West,275,12.0,-999.0,76,-99.99,,,-99.99,,2013-02-24 16:52:00,
2013-02-24 10:01:00,32.0,25.0,30.09,West,271,13.0,-999.0,75,-99.99,,,-99.99,,2013-02-24 17:01:00,
2013-02-24 10:11:00,32.0,25.0,30.09,West,271,13.0,-999.0,75,-99.99,,,-99.99,,2013-02-24 17:11:00,
2013-02-24 10:21:00,32.0,25.0,30.09,West,273,13.0,-999.0,75,-99.99,,,-99.99,,2013-02-24 17:21:00,
2013-02-24 10:32:00,32.0,25.0,30.09,West,276,13.0,-999.0,74,-99.99,,,-99.99,,2013-02-24 17:32:00,
2013-02-24 10:42:00,32.0,25.0,30.09,West,276,13.0,-999.0,74,-99.99,,,-99.99,,2013-02-24 17:42:00,
2013-02-24 10:52:00,32.0,25.0,30.09,WNW,295,12.0,-999.0,74,-99.99,,,-99.99,,2013-02-24 17:52:00,
2013-02-24 11:01:00,33.0,25.0,30.10,West,277,12.0,-999.0,72,-99.99,,,-99.99,,2013-02-24 18:01:00,
2013-02-24 11:11:00,33.0,25.0,30.10,West,277,12.0,-999.0,72,-99.99,,,-99.99,,2013-02-24 18:11:00,
2013-02-24 11:22:00,34.0,25.0,30.10,West,277,11.0,-999.0,69,-99.99,,,-99.99,,2013-02-24 18:22:00,
2013-02-24 11:32:00,34.0,25.0,30.10,WNW,287,10.0,-999.0,69,-99.99,,,-99.99,,2013-02-24 18:32:00,
2013-02-24 11:42:00,34.0,25.0,30.10,WNW,287,10.0,-999.0,69,-99.99,,,-99.99,,2013-02-24 18:42:00,
2013-02-24 11:51:00,34.0,25.0,30.10,NNW,327,7.0,-999.0,68,-99.99,,,-99.99,,2013-02-24 18:51:00,
2013-02-24 12:01:00,35.0,25.0,30.10,WNW,283,7.0,-999.0,66,-99.99,,,-99.99,,2013-02-24 19:01:00,
2013-02-24 12:11:00,35.0,25.0,30.10,WNW,283,7.0,-999.0,66,-99.99,,,-99.99,,2013-02-24 19:11:00,
2013-02-24 12:22:00,35.0,24.0,30.10,WNW,294,7.0,-999.0,65,-99.99,,,-99.99,,2013-02-24 19:22:00,
2013-02-24 12:32:00,35.0,25.0,30.10,NW,306,8.0,-999.0,66,-99.99,,,-99.99,,2013-02-24 19:32:00,
2013-02-24 12:42:00,35.0,25.0,30.10,NW,306,8.0,-999.0,66,-99.99,,,-99.99,,2013-02-24 19:42:00,
2013-02-24 12:51:00,35.0,24.0,30.09,WNW,290,8.0,-999.0,64,-99.99,,,-99.99,,2013-02-24 19:51:00,
2013-02-24 13:02:00,36.0,25.0,30.09,WNW,285,7.0,-999.0,64,-99.99,,,-99.99,,2013-02-24 20:02:00,
2013-02-24 13:11:00,36.0,25.0,30.09,WNW,285,7.0,-999.0,64,-99.99,,,-99.99,,2013-02-24 20:11:00,
2013-02-24 13:21:00,36.0,23.0,30.09,NW,307,8.0,-999.0,60,-99.99,,,-99.99,,2013-02-24 20:21:00,
2013-02-24 13:32:00,36.0,23.0,30.09,WNW,292,9.0,-999.0,59,-99.99,,,-99.99,,2013-02-24 20:32:00,
2013-02-24 13:42:00,36.0,23.0,30.09,WNW,292,9.0,-999.0,59,-99.99,,,-99.99,,2013-02-24 20:42:00,
2013-02-24 13:52:00,37.0,23.0,30.08,WNW,292,9.0,-999.0,57,-99.99,,,-99.99,,2013-02-24 20:52:00,
2013-02-24 14:01:00,37.0,23.0,30.08,WNW,290,9.0,-999.0,56,-99.99,,,-99.99,,2013-02-24 21:01:00,
2013-02-24 14:11:00,37.0,23.0,30.08,WNW,290,9.0,-999.0,56,-99.99,,,-99.99,,2013-02-24 21:11:00,
2013-02-24 14:21:00,37.0,21.0,30.08,WNW,286,8.0,-999.0,53,-99.99,,,-99.99,,2013-02-24 21:21:00,
2013-02-24 14:32:00,38.0,22.0,30.08,West,278,8.0,-999.0,53,-99.99,,,-99.99,,2013-02-24 21:32:00,
2013-02-24 14:42:00,38.0,22.0,30.08,West,278,8.0,-999.0,53,-99.99,,,-99.99,,2013-02-24 21:42:00,
2013-02-24 14:52:00,38.0,23.0,30.07,West,263,7.0,-999.0,54,-99.99,,,-99.99,,2013-02-24 21:52:00,
2013-02-24 15:01:00,38.0,22.0,30.08,West,267,7.0,-999.0,52,-99.99,,,-99.99,,2013-02-24 22:01:00,
2013-02-24 15:11:00,38.0,22.0,30.08,West,267,7.0,-999.0,52,-99.99,,,-99.99,,2013-02-24 22:11:00,
2013-02-24 15:21:00,38.0,20.0,30.08,West,261,6.0,-999.0,47,-99.99,,,-99.99,,2013-02-24 22:21:00,
2013-02-24 15:31:00,39.0,21.0,30.08,WNW,297,6.0,-999.0,49,-99.99,,,-99.99,,2013-02-24 22:31:00,
2013-02-24 15:41:00,39.0,21.0,30.08,WNW,297,6.0,-999.0,49,-99.99,,,-99.99,,2013-02-24 22:41:00,
2013-02-24 15:51:00,39.0,20.0,30.08,WNW,284,6.0,-999.0,46,-99.99,,,-99.99,,2013-02-24 22:51:00,
2013-02-24 16:02:00,39.0,21.0,30.08,West,278,5.0,-999.0,48,-99.99,,,-99.99,,2013-02-24 23:02:00,
2013-02-24 16:11:00,39.0,21.0,30.08,West,278,5.0,-999.0,48,-99.99,,,-99.99,,2013-02-24 23:11:00,
2013-02-24 16:21:00,39.0,20.0,30.08,WNW,282,4.0,-999.0,47,-99.99,,,-99.99,,2013-02-24 23:21:00,
2013-02-24 16:31:00,39.0,20.0,30.08,WNW,286,3.0,-999.0,46,-99.99,,,-99.99,,2013-02-24 23:31:00,
2013-02-24 16:42:00,39.0,20.0,30.08,WNW,286,3.0,-999.0,46,-99.99,,,-99.99,,2013-02-24 23:42:00,
2013-02-24 16:52:00,39.0,18.0,30.09,WNW,282,5.0,-999.0,42,-99.99,,,-99.99,,2013-02-24 23:52:00,
2013-02-24 17:01:00,39.0,19.0,30.08,West,281,2.0,-999.0,44,-99.99,,,-99.99,,2013-02-25 00:01:00,
2013-02-24 17:11:00,39.0,19.0,30.08,West,281,2.0,-999.0,44,-99.99,,,-99.99,,2013-02-25 00:11:00,
2013-02-24 17:21:00,39.0,20.0,30.08,West,281,0.0,-999.0,46,-99.99,,,-99.99,,2013-02-25 00:21:00,
2013-02-24 17:32:00,39.0,22.0,30.08,West,281,2.0,-999.0,51,-99.99,,,-99.99,,2013-02-25 00:32:00,
2013-02-24 17:42:00,39.0,22.0,30.08,West,281,2.0,-999.0,51,-99.99,,,-99.99,,2013-02-25 00:42:00,
2013-02-24 17:51:00,38.0,21.0,30.08,West,281,0.0,-999.0,49,-99.99,,,-99.99,,2013-02-25 00:51:00,
2013-02-24 18:01:00,37.0,20.0,30.08,West,281,0.0,-999.0,50,-99.99,,,-99.99,,2013-02-25 01:01:00,
2013-02-24 18:11:00,37.0,20.0,30.08,West,281,0.0,-999.0,50,-99.99,,,-99.99,,2013-02-25 01:11:00,
2013-02-24 18:21:00,35.0,20.0,30.08,West,281,1.0,-999.0,55,-99.99,,,-99.99,,2013-02-25 01:21:00,
2013-02-24 18:31:00,33.0,20.0,30.08,West,281,0.0,-999.0,59,-99.99,,,-99.99,,2013-02-25 01:31:00,
2013-02-24 18:42:00,33.0,20.0,30.08,West,281,0.0,-999.0,59,-99.99,,,-99.99,,2013-02-25 01:42:00,
2013-02-24 18:51:00,32.0,20.0,30.08,West,281,0.0,-999.0,60,-99.99,,,-99.99,,2013-02-25 01:51:00,
2013-02-24 19:01:00,30.0,20.0,30.08,West,281,0.0,-999.0,66,-99.99,,,-99.99,,2013-02-25 02:01:00,
2013-02-24 19:11:00,30.0,20.0,30.08,West,281,0.0,-999.0,66,-99.99,,,-99.99,,2013-02-25 02:11:00,
2013-02-24 19:21:00,29.0,21.0,30.09,West,281,0.0,-999.0,71,-99.99,,,-99.99,,2013-02-25 02:21:00,
2013-02-24 19:32:00,28.0,20.0,30.08,West,281,0.0,-999.0,72,-99.99,,,-99.99,,2013-02-25 02:32:00,
2013-02-24 19:41:00,28.0,20.0,30.08,West,281,0.0,-999.0,72,-99.99,,,-99.99,,2013-02-25 02:41:00,
2013-02-24 19:52:00,27.0,20.0,30.08,West,281,2.0,-999.0,74,-99.99,,,-99.99,,2013-02-25 02:52:00,
2013-02-24 20:01:00,26.0,19.0,30.08,West,281,0.0,-999.0,74,-99.99,,,-99.99,,2013-02-25 03:01:00,
2013-02-24 20:11:00,26.0,19.0,30.08,West,281,0.0,-999.0,74,-99.99,,,-99.99,,2013-02-25 03:11:00,
2013-02-24 20:21:00,26.0,19.0,30.08,West,281,0.0,-999.0,75,-99.99,,,-99.99,,2013-02-25 03:21:00,
2013-02-24 20:31:00,26.0,19.0,30.07,West,281,0.0,-999.0,75,-99.99,,,-99.99,,2013-02-25 03:31:00,
2013-02-24 20:42:00,26.0,19.0,30.07,West,281,0.0,-999.0,75,-99.99,,,-99.99,,2013-02-25 03:42:00,
2013-02-24 20:51:00,26.0,20.0,30.07,West,281,0.0,-999.0,77,-99.99,,,-99.99,,2013-02-25 03:51:00,
2013-02-24 21:01:00,26.0,20.0,30.07,West,281,0.0,-999.0,77,-99.99,,,-99.99,,2013-02-25 04:01:00,
2013-02-24 21:11:00,26.0,20.0,30.07,West,281,0.0,-999.0,77,-99.99,,,-99.99,,2013-02-25 04:11:00,
2013-02-24 21:21:00,25.0,19.0,30.07,West,281,0.0,-999.0,77,-99.99,,,-99.99,,2013-02-25 04:21:00,
2013-02-24 21:31:00,25.0,19.0,30.07,West,281,0.0,-999.0,77,-99.99,,,-99.99,,2013-02-25 04:31:00,
2013-02-24 21:42:00,25.0,19.0,30.07,West,281,0.0,-999.0,77,-99.99,,,-99.99,,2013-02-25 04:42:00,
2013-02-24 21:52:00,25.0,19.0,30.06,West,281,0.0,-999.0,78,-99.99,,,-99.99,,2013-02-25 04:52:00,
2013-02-24 22:01:00,24.0,18.0,30.06,West,281,0.0,-999.0,78,-99.99,,,-99.99,,2013-02-25 05:01:00,
2013-02-24 22:11:00,24.0,18.0,30.06,West,281,0.0,-999.0,78,-99.99,,,-99.99,,2013-02-25 05:11:00,
2013-02-24 22:22:00,24.0,19.0,30.06,West,281,0.0,-999.0,80,-99.99,,,-99.99,,2013-02-25 05:22:00,
2013-02-24 22:32:00,24.0,19.0,30.06,West,281,0.0,-999.0,80,-99.99,,,-99.99,,2013-02-25 05:32:00,
2013-02-24 22:42:00,24.0,19.0,30.06,West,281,0.0,-999.0,80,-99.99,,,-99.99,,2013-02-25 05:42:00,
2013-02-24 22:52:00,23.0,18.0,30.06,West,281,0.0,-999.0,81,-99.99,,,-99.99,,2013-02-25 05:52:00,
2013-02-24 23:02:00,23.0,18.0,30.06,West,281,0.0,-999.0,81,-99.99,,,-99.99,,2013-02-25 06:02:00,
2013-02-24 23:11:00,23.0,18.0,30.06,West,281,0.0,-999.0,81,-99.99,,,-99.99,,2013-02-25 06:11:00,
2013-02-24 23:21:00,23.0,18.0,30.05,West,281,0.0,-999.0,81,-99.99,,,-99.99,,2013-02-25 06:21:00,
2013-02-24 23:32:00,23.0,18.0,30.05,West,281,0.0,-999.0,81,-99.99,,,-99.99,,2013-02-25 06:32:00,
2013-02-24 23:42:00,23.0,18.0,30.05,West,281,0.0,-999.0,81,-99.99,,,-99.99,,2013-02-25 06:42:00,
2013-02-24 23:51:00,23.0,18.0,30.04,West,281,0.0,-999.0,82,-99.99,,,-99.99,,2013-02-25 06:51:00,